"Period start","avg(HW err(1)/warn(2) (#))","avg(Visibility (m))","avg(Weather code (#))","avg(Precip intensity (mm/h))","min(HW err(1)/warn(2) (#))","max(HW err(1)/warn(2) (#))","std(HW err(1)/warn(2) (#))","med(HW err(1)/warn(2) (#))","min(Visibility (m))","max(Visibility (m))","std(Visibility (m))","med(Visibility (m))","min(Weather code (#))","max(Weather code (#))","std(Weather code (#))","med(Weather code (#))","min(Precip intensity (mm/h))","max(Precip intensity (mm/h))","std(Precip intensity (mm/h))","med(Precip intensity (mm/h))"
2017-11-21 00:00:00,2,2693,71,0.25,2,2,0,2,1632,3257,553,3014,71,71,0,71,0.00,0.70,0.22,0.17
2017-11-21 00:10:00,2,1675,71,0.28,2,2,0,2,1240,2163,281,1759,71,71,0,71,0.05,1.40,0.39,0.15
2017-11-21 00:20:00,2,1960,71,0.23,2,2,0,2,1732,2190,136,1960,71,71,0,71,0.10,0.50,0.12,0.20
2017-11-21 00:30:00,2,1579,71,0.66,2,2,0,2,1140,2040,265,1617,71,71,0,71,0.40,1.05,0.19,0.60
2017-11-21 00:40:00,2,1272,71,1.24,2,2,0,2,966,1612,169,1313,71,71,0,71,0.80,1.85,0.31,1.15
2017-11-21 00:50:00,2,1337,71,2.47,2,2,0,2,972,1605,187,1331,71,71,0,71,0.60,4.20,1.14,2.65
2017-11-21 01:00:00,2,1505,71,0.94,2,2,0,2,1232,1676,133,1520,71,71,0,71,0.50,1.35,0.28,0.95
2017-11-21 01:10:00,2,1534,71,0.81,2,2,0,2,1374,1854,139,1486,71,71,0,71,0.45,1.20,0.22,0.85
2017-11-21 01:20:00,2,2239,71,0.39,2,2,0,2,1677,2797,333,2230,71,71,0,71,0.15,0.65,0.16,0.40
2017-11-21 01:30:00,2,2627,74,0.17,2,2,0,2,2255,3088,230,2608,71,77,3,74,0.05,0.40,0.10,0.12
2017-11-21 01:40:00,2,1919,72,0.57,2,2,0,2,1352,2418,332,1928,71,77,2,71,0.25,1.20,0.31,0.43
2017-11-21 01:50:00,2,1917,71,0.42,2,2,0,2,1485,2410,286,1930,71,71,0,71,0.05,1.20,0.39,0.28
2017-11-21 02:00:00,2,1983,76,0.30,2,2,0,2,1436,2373,308,2003,71,77,2,77,0.10,0.50,0.13,0.28
2017-11-21 02:10:00,2,1504,76,0.73,2,2,0,2,1325,1759,141,1500,71,77,2,77,0.35,1.00,0.23,0.80
2017-11-21 02:20:00,2,1503,71,1.10,2,2,0,2,1344,1641,110,1502,71,71,0,71,0.45,1.60,0.40,1.27
2017-11-21 02:30:00,2,1193,71,1.88,2,2,0,2,1054,1363,113,1192,71,71,0,71,1.35,2.55,0.36,1.80
2017-11-21 02:40:00,2,1272,71,2.66,2,2,0,2,893,1411,167,1332,71,71,0,71,1.35,5.80,1.48,2.10
2017-11-21 02:50:00,2,959,71,4.25,2,2,0,2,869,1056,57,943,71,71,0,71,3.05,6.10,0.85,4.10
2017-11-21 03:00:00,2,984,71,5.88,2,2,0,2,833,1121,85,992,71,71,0,71,4.00,9.65,1.70,5.45
2017-11-21 03:10:00,2,1098,71,5.05,2,2,0,2,946,1227,91,1106,71,71,0,71,2.90,7.30,1.51,4.38
2017-11-21 03:20:00,2,1278,71,2.31,2,2,0,2,1110,1560,139,1248,71,71,0,71,1.00,4.05,0.87,2.30
2017-11-21 03:30:00,2,1379,71,1.71,2,2,0,2,1066,1714,229,1392,71,71,0,71,1.10,2.75,0.44,1.62
2017-11-21 03:40:00,2,1316,71,1.06,2,2,0,2,1065,1634,187,1322,71,71,0,71,0.45,2.30,0.63,0.77
2017-11-21 03:50:00,2,1460,71,0.40,2,2,0,2,1163,1759,160,1458,71,71,0,71,0.20,0.95,0.20,0.33
2017-11-21 04:00:00,2,1594,71,0.44,2,2,0,2,1342,1913,187,1582,71,71,0,71,0.30,0.95,0.18,0.38
2017-11-21 04:10:00,2,1957,73,0.18,2,2,0,2,1641,2256,171,1985,71,77,3,71,0.05,0.45,0.11,0.15
2017-11-21 04:20:00,2,1992,75,0.20,2,2,0,2,1719,2652,245,1912,71,77,3,77,0.10,0.40,0.10,0.15
2017-11-21 04:30:00,2,2376,77,0.11,2,2,0,2,1922,2758,284,2450,77,77,0,77,0.05,0.15,0.03,0.10
2017-11-21 04:40:00,2,1746,77,0.28,2,2,0,2,1602,2020,119,1748,77,77,0,77,0.10,0.60,0.16,0.25
2017-11-21 04:50:00,2,1483,72,1.47,2,2,0,2,1317,1644,99,1493,71,77,2,71,0.65,2.20,0.54,1.52
2017-11-21 05:00:00,2,1417,71,1.38,2,2,0,2,1207,1567,110,1430,71,71,0,71,0.50,2.55,0.67,1.33
2017-11-21 05:10:00,2,1339,73,0.34,2,2,0,2,1203,1419,76,1372,71,77,3,71,0.20,0.50,0.08,0.33
2017-11-21 05:20:00,2,1161,77,0.35,2,2,0,2,943,1322,133,1210,77,77,0,77,0.15,0.60,0.16,0.30
2017-11-21 05:30:00,2,961,77,0.49,2,2,0,2,766,1087,101,962,77,77,0,77,0.20,0.70,0.16,0.50
2017-11-21 05:40:00,2,917,77,0.56,2,2,0,2,598,1096,162,1008,77,77,0,77,0.20,1.00,0.22,0.57
2017-11-21 05:50:00,2,579,74,1.01,2,2,0,2,442,757,105,599,72,77,2,74,0.50,1.50,0.27,1.00
2017-11-21 06:00:00,2,568,73,1.15,2,2,0,2,287,759,121,576,72,77,2,72,0.40,3.75,0.90,0.85
2017-11-21 06:10:00,2,700,76,0.48,2,2,0,2,586,790,71,717,72,77,2,77,0.25,0.70,0.16,0.45
2017-11-21 06:20:00,2,777,77,0.55,2,2,0,2,534,922,118,809,77,77,0,77,0.20,1.30,0.29,0.47
2017-11-21 06:30:00,2,823,77,0.62,2,2,0,2,477,1051,190,905,77,77,0,77,0.40,0.95,0.18,0.60
2017-11-21 06:40:00,2,548,72,1.02,2,2,0,2,414,784,143,467,71,72,0,72,0.50,1.40,0.29,1.10
2017-11-21 06:50:00,2,532,72,1.05,2,2,0,2,387,752,102,524,71,72,0,72,0.20,1.65,0.41,1.15
2017-11-21 07:00:00,2,982,75,0.36,2,2,0,2,701,1301,148,972,71,77,3,77,0.10,1.05,0.28,0.30
2017-11-21 07:10:00,2,1164,76,0.25,2,2,0,2,666,1451,215,1197,71,77,2,77,0.15,0.40,0.08,0.25
2017-11-21 07:20:00,2,954,77,0.26,2,2,0,2,847,1137,90,923,77,77,0,77,0.10,0.50,0.11,0.25
2017-11-21 07:30:00,2,1071,77,0.20,2,2,0,2,805,1303,163,1078,77,77,0,77,0.10,0.45,0.10,0.20
2017-11-21 07:40:00,2,919,72,0.83,2,2,0,2,687,1414,246,848,71,77,2,71,0.05,2.35,0.76,0.50
2017-11-21 07:50:00,2,876,71,1.10,2,2,0,2,408,1480,353,802,71,71,0,71,0.25,2.40,0.78,0.78
2017-11-21 08:00:00,2,783,73,0.33,2,2,0,2,688,999,88,772,71,77,3,71,0.20,0.60,0.16,0.25
2017-11-21 08:10:00,2,856,77,0.32,2,2,0,2,608,1107,134,878,77,77,0,77,0.15,0.50,0.11,0.35
2017-11-21 08:20:00,2,981,73,0.48,2,2,0,2,631,1411,219,985,71,77,3,71,0.15,1.20,0.36,0.30
2017-11-21 08:30:00,2,1006,71,0.71,2,2,0,2,836,1192,104,996,71,71,0,71,0.20,1.65,0.40,0.57
2017-11-21 08:40:00,2,1026,73,0.22,2,2,0,2,857,1310,159,956,71,77,3,71,0.05,0.45,0.11,0.20
2017-11-21 08:50:00,2,991,73,0.32,2,2,0,2,691,1269,190,1034,71,77,3,71,0.10,0.60,0.15,0.30
2017-11-21 09:00:00,2,1174,74,0.20,2,2,0,2,855,1389,156,1206,71,77,3,74,0.10,0.35,0.08,0.15
2017-11-21 09:10:00,2,786,74,0.52,2,2,0,2,504,1062,180,788,71,77,3,74,0.15,1.05,0.31,0.40
2017-11-21 09:20:00,2,1077,77,0.16,2,2,0,2,860,1329,155,1094,77,77,0,77,0.10,0.25,0.05,0.15
2017-11-21 09:30:00,2,1288,77,0.23,2,2,0,2,730,1856,345,1346,77,77,0,77,0.05,0.80,0.23,0.15
2017-11-21 09:40:00,2,791,73,0.84,2,2,0,2,476,1806,367,681,71,77,3,71,0.15,2.10,0.73,0.48
2017-11-21 09:50:00,2,696,74,0.72,2,2,0,2,444,998,206,655,71,77,3,72,0.10,2.30,0.69,0.42
2017-11-21 10:00:00,2,717,74,0.47,2,2,0,2,600,875,89,674,71,77,3,74,0.15,0.95,0.25,0.47
2017-11-21 10:10:00,2,706,77,0.39,2,2,0,2,594,957,95,676,77,77,0,77,0.15,1.00,0.24,0.33
2017-11-21 10:20:00,2,1137,77,0.23,2,2,0,2,615,1971,442,1030,77,77,0,77,0.05,0.85,0.23,0.20
2017-11-21 10:30:00,2,1414,77,0.11,2,2,0,2,908,2340,486,1330,77,77,0,77,0.00,0.25,0.09,0.12
2017-11-21 10:40:00,2,1163,77,0.15,2,2,0,2,722,1697,319,1092,77,77,0,77,0.05,0.35,0.09,0.10
2017-11-21 10:50:00,2,1184,77,0.18,2,2,0,2,907,1848,282,1138,77,77,0,77,0.05,0.40,0.09,0.17
2017-11-21 11:00:00,2,1113,77,0.16,2,2,0,2,831,1366,142,1150,77,77,0,77,0.05,0.30,0.08,0.15
2017-11-21 11:10:00,2,1725,77,0.06,2,2,0,2,1278,1998,218,1804,77,77,0,77,0.00,0.10,0.04,0.05
2017-11-21 11:20:00,2,1657,77,0.10,2,2,0,2,1207,2180,279,1735,77,77,0,77,0.05,0.20,0.04,0.10
2017-11-21 11:30:00,2,1976,77,0.08,2,2,0,2,1630,2244,202,2013,77,77,0,77,0.00,0.20,0.06,0.05
2017-11-21 11:40:00,2,1328,77,0.21,2,2,0,2,1005,1772,210,1256,77,77,0,77,0.10,0.30,0.06,0.20
2017-11-21 11:50:00,2,1843,77,0.08,2,2,0,2,1355,2681,378,1777,77,77,0,77,0.00,0.15,0.06,0.10
2017-11-21 12:00:00,2,1780,75,0.11,2,2,0,2,1296,2185,266,1905,71,77,3,77,0.05,0.25,0.07,0.08
2017-11-21 12:10:00,2,1871,77,0.11,2,2,0,2,1369,2356,359,1974,77,77,0,77,0.00,0.40,0.12,0.05
2017-11-21 12:20:00,2,1656,77,0.12,2,2,0,2,1327,2111,260,1621,77,77,0,77,0.05,0.25,0.07,0.10
2017-11-21 12:30:00,2,1890,49,0.07,2,2,0,2,1560,2411,319,1694,10,77,32,71,0.00,0.30,0.11,0.00
2017-11-21 12:40:00,2,1746,77,0.14,2,2,0,2,1366,2051,227,1702,77,77,0,77,0.05,0.30,0.10,0.12
2017-11-21 12:50:00,2,1581,77,0.17,2,2,0,2,1150,2061,242,1598,77,77,0,77,0.05,0.30,0.08,0.17
2017-11-21 13:00:00,2,1973,56,0.10,2,2,0,2,1273,2968,480,1893,10,77,30,74,0.00,0.30,0.10,0.05
2017-11-21 13:10:00,2,2235,77,0.18,2,2,0,2,1810,2954,347,2190,77,77,0,77,0.05,0.35,0.10,0.17
2017-11-21 13:20:00,2,1510,76,0.30,2,2,0,2,1206,2097,312,1400,71,77,2,77,0.10,0.60,0.17,0.30
2017-11-21 13:30:00,2,1504,74,0.29,2,2,0,2,1247,1934,214,1528,71,77,3,74,0.05,0.75,0.24,0.17
2017-11-21 13:40:00,2,1130,77,0.32,2,2,0,2,907,1279,112,1158,77,77,0,77,0.15,0.50,0.11,0.30
2017-11-21 13:50:00,2,905,77,0.45,2,2,0,2,608,1164,177,968,77,77,0,77,0.20,0.95,0.24,0.40
2017-11-21 14:00:00,2,789,75,0.51,2,2,0,2,617,1033,135,767,71,77,3,77,0.25,0.90,0.23,0.42
2017-11-21 14:10:00,2,877,76,0.47,2,2,0,2,785,982,63,888,71,77,2,77,0.15,0.90,0.21,0.47
2017-11-21 14:20:00,2,776,77,0.31,2,2,0,2,635,929,92,754,77,77,0,77,0.15,0.70,0.18,0.23
2017-11-21 14:30:00,2,1077,77,0.18,2,2,0,2,868,1267,114,1058,77,77,0,77,0.10,0.25,0.06,0.20
2017-11-21 14:40:00,2,1087,77,0.18,2,2,0,2,869,1446,184,1026,77,77,0,77,0.10,0.25,0.05,0.20
2017-11-21 14:50:00,2,823,77,0.22,2,2,0,2,705,959,77,825,77,77,0,77,0.15,0.35,0.06,0.20
2017-11-21 15:00:00,2,1044,77,0.17,2,2,0,2,934,1224,88,1022,77,77,0,77,0.05,0.25,0.06,0.17
2017-11-21 15:10:00,2,870,77,0.26,2,2,0,2,731,1036,92,860,77,77,0,77,0.15,0.35,0.07,0.25
2017-11-21 15:20:00,2,935,77,0.38,2,2,0,2,796,1066,81,936,77,77,0,77,0.15,0.75,0.23,0.25
2017-11-21 15:30:00,2,1019,77,0.21,2,2,0,2,910,1127,69,1006,77,77,0,77,0.15,0.30,0.04,0.20
2017-11-21 15:40:00,2,907,77,0.25,2,2,0,2,824,994,48,910,77,77,0,77,0.15,0.40,0.07,0.23
2017-11-21 15:50:00,2,987,77,0.20,2,2,0,2,904,1076,54,973,77,77,0,77,0.10,0.30,0.06,0.20
2017-11-21 16:00:00,2,1029,77,0.23,2,2,0,2,872,1214,98,1003,77,77,0,77,0.15,0.35,0.06,0.25
2017-11-21 16:10:00,2,915,77,0.31,2,2,0,2,813,1016,62,916,77,77,0,77,0.20,0.40,0.06,0.33
2017-11-21 16:20:00,2,817,77,0.56,2,2,0,2,703,966,99,806,77,77,0,77,0.30,1.10,0.28,0.42
2017-11-21 16:30:00,2,831,77,0.40,2,2,0,2,687,984,82,828,77,77,0,77,0.30,0.60,0.09,0.40
2017-11-21 16:40:00,2,835,77,0.51,2,2,0,2,680,993,104,849,77,77,0,77,0.25,0.85,0.20,0.42
2017-11-21 16:50:00,1,491,77,0.65,1,2,0,1,0,776,348,696,77,77,0,77,0.35,0.80,0.21,0.80
2017-11-21 17:00:00,1,,,,1,1,0,1,,,,,,,,,,,,
2017-11-21 17:10:00,1,,,,1,1,0,1,,,,,,,,,,,,
2017-11-21 17:20:00,1,,,,1,1,0,1,,,,,,,,,,,,
2017-11-21 17:30:00,1,0,77,0.50,1,2,0,1,0,0,0,0,77,77,0,77,0.50,0.50,0.00,0.50
2017-11-21 17:40:00,1,,,,1,1,0,1,,,,,,,,,,,,
2017-11-21 17:50:00,1,,,,1,1,0,1,,,,,,,,,,,,
2017-11-21 18:00:00,1,,,,1,1,0,1,,,,,,,,,,,,
2017-11-21 18:10:00,1,,,,1,1,0,1,,,,,,,,,,,,
2017-11-21 18:20:00,1,,,,1,1,0,1,,,,,,,,,,,,
2017-11-21 18:30:00,1,,,,1,1,0,1,,,,,,,,,,,,
2017-11-21 18:40:00,1,,,,1,1,0,1,,,,,,,,,,,,
2017-11-21 18:50:00,1,,,,1,1,0,1,,,,,,,,,,,,
2017-11-21 19:00:00,1,,,,1,1,0,1,,,,,,,,,,,,
2017-11-21 19:10:00,1,,,,1,1,0,1,,,,,,,,,,,,
2017-11-21 19:20:00,1,,,,1,1,0,1,,,,,,,,,,,,
2017-11-21 19:30:00,1,,,,1,1,0,1,,,,,,,,,,,,
2017-11-21 19:40:00,1,,,,1,1,0,1,,,,,,,,,,,,
2017-11-21 19:50:00,1,,,,1,1,0,1,,,,,,,,,,,,
2017-11-21 20:00:00,1,,,,1,1,0,1,,,,,,,,,,,,
2017-11-21 20:10:00,1,,,,1,1,0,1,,,,,,,,,,,,
2017-11-21 20:20:00,1,,,,1,1,0,1,,,,,,,,,,,,
2017-11-21 20:30:00,1,,,,1,1,0,1,,,,,,,,,,,,
2017-11-21 20:40:00,1,,,,1,1,0,1,,,,,,,,,,,,
2017-11-21 20:50:00,1,,,,1,1,0,1,,,,,,,,,,,,
2017-11-21 21:00:00,1,,,,1,1,0,1,,,,,,,,,,,,
2017-11-21 21:10:00,1,,,,1,1,0,1,,,,,,,,,,,,
2017-11-21 21:20:00,1,,,,1,1,0,1,,,,,,,,,,,,
2017-11-21 21:30:00,1,,,,1,1,0,1,,,,,,,,,,,,
2017-11-21 21:40:00,1,,,,1,1,0,1,,,,,,,,,,,,
2017-11-21 21:50:00,1,,,,1,1,0,1,,,,,,,,,,,,
2017-11-21 22:00:00,1,,,,1,1,0,1,,,,,,,,,,,,
2017-11-21 22:10:00,1,,,,1,1,0,1,,,,,,,,,,,,
2017-11-21 22:20:00,1,,,,1,1,0,1,,,,,,,,,,,,
2017-11-21 22:30:00,1,,,,1,1,0,1,,,,,,,,,,,,
2017-11-21 22:40:00,1,,,,1,1,0,1,,,,,,,,,,,,
2017-11-21 22:50:00,1,,,,1,1,0,1,,,,,,,,,,,,
2017-11-21 23:00:00,1,,,,1,1,0,1,,,,,,,,,,,,
2017-11-21 23:10:00,1,,,,1,1,0,1,,,,,,,,,,,,
2017-11-21 23:20:00,1,,,,1,1,0,1,,,,,,,,,,,,
2017-11-21 23:30:00,1,,,,1,1,0,1,,,,,,,,,,,,
2017-11-21 23:40:00,1,,,,1,1,0,1,,,,,,,,,,,,
2017-11-21 23:50:00,1,,,,1,1,0,1,,,,,,,,,,,,
